Ozona, TX

2:17 PM CST on January 20, 2018 (GMT -0600)
Ozona Municipal

Weather History for KOZA - October, 2011

Change the Weather History Date:

Saturday, October 29, 2011

  Actual Average Record
Temperature  
Mean Temperature 48 °F -  
Max Temperature 66 °F 73 °F 82 °F (2016)
Min Temperature 29 °F 48 °F 28 °F (2017)
Degree Days  
Heating Degree Days 18    
Moisture  
Dew Point 30 °F    
Average Humidity 55    
Maximum Humidity 88    
Minimum Humidity 26    
Precipitation  
Precipitation 0.00 in - - ()
Sea Level Pressure  
Sea Level Pressure 30.25 in    
Wind  
Wind Speed 5 mph (South)    
Max Wind Speed 15 mph    
Max Gust Speed 20 mph    
Visibility 10 miles    
Events      
Averages and records for this station are not official NWS values.
T = Trace of Precipitation, MM = Missing Value Source: NWS Daily Summary

Daily Weather History Graph

Daily Weather History Graph

Search for Another Location

Airport or City:

Trip Planner

Search our weather history database for the weather conditions in past years. The results will help you decide how hot, cold, wet, or windy it might be!

Date:

Astronomy

Oct. 29, 2011 Rise Set
Actual Time 7:57 AM CDT 6:59 PM CDT
Civil Twilight 7:32 AM CDT 7:24 PM CDT
Nautical Twilight 7:03 AM CDT 7:52 PM CDT
Astronomical Twilight 6:35 AM CDT 8:20 PM CDT
Moon 11:08 AM CDT (10/29) 9:37 PM CDT (10/29)
Length of Visible Light 11h 51m
Length of Day
11h 02m
Waxing Crescent, 12% of the Moon is Illuminated
Oct 29
Waxing Crescent
Nov 2
First Quarter
Nov 10
Full
Nov 18
Last Quarter
Nov 25
New

Hourly Weather History & Observations

Time (CDT) Temp. Windchill Dew Point Humidity Pressure Visibility Wind Dir Wind Speed Gust Speed Precip Events Conditions
12:15 AM 36.3 °F - 30.0 °F 78% 30.35 in 10.0 mi Calm Calm - N/A   Clear
12:35 AM 36.3 °F - 30.0 °F 78% 30.35 in 10.0 mi Calm Calm - N/A   Clear
12:55 AM 35.4 °F - 28.6 °F 76% 30.35 in 10.0 mi Calm Calm - N/A   Clear
1:15 AM 34.9 °F 30.8 °F 29.1 °F 79% 30.35 in 10.0 mi NNE 4.6 mph - N/A   Clear
1:35 AM 34.3 °F 30.2 °F 28.8 °F 80% 30.35 in 10.0 mi NNE 4.6 mph - N/A   Clear
2:15 AM 33.3 °F - 28.2 °F 82% 30.35 in 10.0 mi Calm Calm - N/A   Clear
2:35 AM 33.3 °F 27.9 °F 28.0 °F 81% 30.35 in 10.0 mi NNE 5.8 mph - N/A   Clear
3:15 AM 32.7 °F - 28.6 °F 85% 30.35 in 10.0 mi Calm Calm - N/A   Clear
3:35 AM 32.2 °F - 27.5 °F 83% 30.35 in 10.0 mi Calm Calm - N/A   Clear
3:55 AM 32.0 °F 27.5 °F 27.3 °F 83% 30.34 in 10.0 mi NNE 4.6 mph - N/A   Clear
4:15 AM 31.3 °F 25.6 °F 26.8 °F 83% 30.34 in 10.0 mi NNE 5.8 mph - N/A   Clear
4:35 AM 31.6 °F 26.0 °F 27.5 °F 85% 30.34 in 10.0 mi NNE 5.8 mph - N/A   Clear
4:55 AM 31.8 °F 28.5 °F 27.5 °F 84% 30.33 in 10.0 mi NNE 3.5 mph - N/A   Clear
5:15 AM 31.1 °F - 27.0 °F 85% 30.33 in 10.0 mi Calm Calm - N/A   Clear
5:35 AM 30.7 °F - 26.8 °F 85% 30.33 in 10.0 mi Calm Calm - N/A   Clear
5:55 AM 30.2 °F 26.7 °F 26.2 °F 85% 30.33 in 10.0 mi NNE 3.5 mph - N/A   Clear
6:15 AM 29.8 °F 26.3 °F 26.1 °F 86% 30.33 in 10.0 mi NNE 3.5 mph - N/A   Clear
6:35 AM 30.2 °F 26.7 °F 26.6 °F 86% 30.33 in 10.0 mi North 3.5 mph - N/A   Clear
7:15 AM 29.3 °F - 25.7 °F 86% 30.33 in 10.0 mi Calm Calm - N/A   Clear
7:35 AM 29.3 °F - 25.9 °F 87% 30.33 in 10.0 mi Calm Calm - N/A   Clear
7:55 AM 29.1 °F - 25.9 °F 88% 30.34 in 10.0 mi Calm Calm - N/A   Clear
8:15 AM 29.5 °F - 25.9 °F 86% 30.34 in 10.0 mi Calm Calm - N/A   Clear
8:35 AM 30.2 °F - 26.1 °F 85% 30.35 in 10.0 mi Calm Calm - N/A   Clear
8:55 AM 32.2 °F - 27.7 °F 83% 30.35 in 10.0 mi Calm Calm - N/A   Clear
9:15 AM 34.7 °F - 29.5 °F 81% 30.35 in 10.0 mi Calm Calm - N/A   Clear
9:35 AM 40.1 °F - 31.6 °F 72% 30.35 in 10.0 mi Calm Calm - N/A   Clear
9:55 AM 45.7 °F 43.4 °F 33.1 °F 61% 30.35 in 10.0 mi SSW 4.6 mph - N/A   Clear
10:15 AM 49.6 °F - 34.0 °F 55% 30.35 in 10.0 mi SSW 6.9 mph - N/A   Clear
10:35 AM 52.0 °F - 33.8 °F 50% 30.35 in 10.0 mi SSW 12.7 mph - N/A   Clear
10:55 AM 53.6 °F - 33.8 °F 47% 30.34 in 10.0 mi SSW 10.4 mph - N/A   Clear
11:15 AM 55.0 °F - 34.0 °F 45% 30.33 in 10.0 mi South 9.2 mph - N/A   Clear
11:35 AM 56.1 °F - 34.0 °F 43% 30.32 in 10.0 mi South 11.5 mph - N/A   Clear
11:55 AM 57.2 °F - 33.6 °F 41% 30.32 in 10.0 mi South 6.9 mph - N/A   Clear
12:15 PM 58.3 °F - 33.3 °F 39% 30.31 in 10.0 mi South 10.4 mph - N/A   Clear
12:35 PM 59.0 °F - 32.4 °F 37% 30.29 in 10.0 mi South 11.5 mph 18.4 mph N/A   Clear
12:55 PM 59.7 °F - 32.0 °F 35% 30.28 in 10.0 mi SSW 10.4 mph - N/A   Clear
1:15 PM 61.0 °F - 32.0 °F 34% 30.26 in 10.0 mi South 12.7 mph 18.4 mph N/A   Clear
1:35 PM 61.7 °F - 31.5 °F 32% 30.25 in 10.0 mi SSW 11.5 mph 17.3 mph N/A   Clear
1:55 PM 62.6 °F - 31.8 °F 32% 30.23 in 10.0 mi South 8.1 mph 18.4 mph N/A   Clear
2:15 PM 63.1 °F - 31.1 °F 30% 30.21 in 10.0 mi South 10.4 mph 17.3 mph N/A   Clear
2:35 PM 63.9 °F - 30.6 °F 29% 30.19 in 10.0 mi South 12.7 mph - N/A   Clear
2:55 PM 64.8 °F - 30.6 °F 28% 30.18 in 10.0 mi South 5.8 mph 17.3 mph N/A   Clear
3:15 PM 65.1 °F - 30.4 °F 27% 30.16 in 10.0 mi SSW 13.8 mph 18.4 mph N/A   Clear
3:35 PM 65.5 °F - 30.4 °F 27% 30.16 in 10.0 mi South 15.0 mph 19.6 mph N/A   Clear
3:55 PM 65.5 °F - 30.6 °F 27% 30.15 in 10.0 mi South 12.7 mph 18.4 mph N/A   Clear
4:15 PM 66.0 °F - 30.4 °F 26% 30.13 in 10.0 mi South 8.1 mph 18.4 mph N/A   Clear
4:35 PM 66.0 °F - 30.4 °F 26% 30.13 in 10.0 mi South 11.5 mph 18.4 mph N/A   Clear
4:55 PM 65.7 °F - 30.2 °F 27% 30.12 in 10.0 mi South 13.8 mph - N/A   Clear
5:15 PM 65.5 °F - 30.9 °F 27% 30.11 in 10.0 mi South 12.7 mph - N/A   Clear
5:35 PM 65.5 °F - 31.1 °F 28% 30.11 in 10.0 mi SSW 12.7 mph - N/A   Clear
5:55 PM 64.6 °F - 31.5 °F 29% 30.11 in 10.0 mi South 11.5 mph - N/A   Clear
6:15 PM 63.9 °F - 31.8 °F 30% 30.11 in 10.0 mi South 10.4 mph - N/A   Clear
6:35 PM 62.8 °F - 32.0 °F 32% 30.10 in 10.0 mi South 12.7 mph 17.3 mph N/A   Clear
6:55 PM 61.3 °F - 32.0 °F 33% 30.10 in 10.0 mi South 10.4 mph - N/A   Clear
7:15 PM 60.3 °F - 32.0 °F 34% 30.09 in 10.0 mi South 9.2 mph - N/A   Clear
7:35 PM 59.0 °F - 32.0 °F 36% 30.10 in 10.0 mi South 6.9 mph - N/A   Clear
7:55 PM 58.1 °F - 32.0 °F 37% 30.10 in 10.0 mi South 6.9 mph - N/A   Clear
8:15 PM 57.4 °F - 32.0 °F 38% 30.10 in 10.0 mi South 6.9 mph - N/A   Clear
8:35 PM 56.8 °F - 32.2 °F 39% 30.10 in 10.0 mi South 6.9 mph - N/A   Clear
8:55 PM 55.9 °F - 32.4 °F 41% 30.10 in 10.0 mi South 8.1 mph - N/A   Clear
9:15 PM 55.4 °F - 32.9 °F 43% 30.10 in 10.0 mi South 4.6 mph - N/A   Clear
9:35 PM 54.9 °F - 32.9 °F 43% 30.10 in 10.0 mi South 6.9 mph - N/A   Clear
9:55 PM 54.1 °F - 33.3 °F 45% 30.10 in 10.0 mi South 4.6 mph - N/A   Clear
10:15 PM 53.6 °F - 33.3 °F 46% 30.10 in 10.0 mi South 4.6 mph - N/A   Clear
10:35 PM 53.4 °F - 33.6 °F 47% 30.10 in 10.0 mi South 8.1 mph - N/A   Clear
10:55 PM 52.9 °F - 33.8 °F 48% 30.09 in 10.0 mi SSW 6.9 mph - N/A   Clear
11:15 PM 52.2 °F - 33.8 °F 50% 30.09 in 10.0 mi South 5.8 mph - N/A   Clear
11:35 PM 52.0 °F - 34.0 °F 50% 30.09 in 10.0 mi South 8.1 mph - N/A   Clear
11:55 PM 52.5 °F - 34.3 °F 50% 30.09 in 10.0 mi South 5.8 mph - N/A   Clear